When you browse on this site, cookies collect data to enhance your experience and personalize the content and advertising you see.
Visit our Privacy Policy to learn more. By continuing to use the site, you agree to this use of cookies and data.
  • In France
  • List of Countries
  • For 7 days
  • Water Temperature
  • Satellite Maps
  • Weather Map
  • Weather Widgets
  • user-avatar
    Login

    Hourly Weather Gjirokaster

    Today, 26 April, Friday

    Time Temperature Precipitation Wind Pressure Humidity
    00:00 +10°C° 0 mm 1 mps 655 mmHg 77%
    01:00 +10°C° 0 mm 1 mps 654 mmHg 76%
    02:00 +10°C° 0 mm 1 mps 654 mmHg 75%
    03:00 +10°C° 0 mm 1 mps 654 mmHg 74%
    04:00 +9°C° 0 mm 1 mps 654 mmHg 73%
    05:00 +11°C° 0 mm 1 mps 654 mmHg 70%
    06:00 +12°C° 0 mm 1 mps 654 mmHg 67%
    07:00 +14°C° 0 mm 1 mps 655 mmHg 64%
    08:00 +15°C° 0 mm 1 mps 655 mmHg 58%
    09:00 +18°C° 0 mm 1 mps 656 mmHg 52%
    10:00 +20°C° 0 mm 1 mps 656 mmHg 45%
    11:00 +20°C° 0 mm 1 mps 656 mmHg 45%
    12:00 +19°C° 0 mm 2 mps 656 mmHg 45%
    13:00 +20°C° 0 mm 2 mps 656 mmHg 45%
    14:00 +19°C° 0 mm 2 mps 655 mmHg 48%
    15:00 +19°C° 0 mm 2 mps 655 mmHg 51%
    16:00 +18°C° 0 mm 2 mps 654 mmHg 53%
    17:00 +16°C° 0 mm 1 mps 654 mmHg 60%
    18:00 +14°C° 0 mm 1 mps 653 mmHg 66%
    19:00 +12°C° 0 mm 0 mps 653 mmHg 72%
    20:00 +12°C° 0 mm 1 mps 653 mmHg 72%
    21:00 +12°C° 0 mm 1 mps 653 mmHg 72%
    22:00 +11°C° 0 mm 1 mps 653 mmHg 71%
    23:00 +11°C° 0 mm 1 mps 653 mmHg 70%

    Tomorrow, 27 April, Saturday

    Time Temperature Precipitation Wind Pressure Humidity
    00:00 +11°C° 0 mm 1 mps 652 mmHg 69%
    01:00 +10°C° 0 mm 1 mps 652 mmHg 68%
    02:00 +10°C° 0 mm 1 mps 652 mmHg 67%
    03:00 +10°C° 0 mm 1 mps 651 mmHg 65%
    04:00 +10°C° 0 mm 1 mps 651 mmHg 64%
    05:00 +10°C° 0 mm 1 mps 651 mmHg 63%
    06:00 +11°C° 0 mm 1 mps 651 mmHg 61%
    07:00 +11°C° 0 mm 0 mps 652 mmHg 60%
    08:00 +13°C° 0 mm 1 mps 652 mmHg 57%
    09:00 +14°C° 0 mm 1 mps 652 mmHg 54%
    10:00 +15°C° 0 mm 2 mps 653 mmHg 51%
    11:00 +16°C° 0 mm 2 mps 652 mmHg 51%
    12:00 +16°C° 0 mm 2 mps 652 mmHg 51%
    13:00 +16°C° 0 mm 2 mps 652 mmHg 51%
    14:00 +16°C° 0.4 mm 3 mps 652 mmHg 55%
    15:00 +14°C° 0.4 mm 3 mps 651 mmHg 58%
    16:00 +13°C° 0.4 mm 3 mps 651 mmHg 62%
    17:00 +12°C° 0.1 mm 3 mps 651 mmHg 67%
    18:00 +10°C° 0.1 mm 3 mps 650 mmHg 72%
    19:00 +8°C° 0.1 mm 3 mps 650 mmHg 77%
    20:00 +7°C° 0 mm 3 mps 650 mmHg 76%
    21:00 +7°C° 0 mm 2 mps 650 mmHg 75%
    22:00 +6°C° 0 mm 2 mps 650 mmHg 74%
    23:00 +6°C° 0 mm 2 mps 650 mmHg 72%

    Day after tomorrow, 28 April, Sunday

    Time Temperature Precipitation Wind Pressure Humidity
    00:00 +5°C° 0 mm 2 mps 650 mmHg 70%
    01:00 +5°C° 0 mm 2 mps 650 mmHg 68%
    02:00 +4°C° 0 mm 2 mps 650 mmHg 70%
    03:00 +4°C° 0 mm 2 mps 650 mmHg 71%
    04:00 +4°C° 0 mm 2 mps 649 mmHg 73%
    05:00 +5°C° 0 mm 2 mps 650 mmHg 70%
    06:00 +6°C° 0 mm 2 mps 650 mmHg 68%
    07:00 +7°C° 0 mm 2 mps 651 mmHg 66%
    08:00 +8°C° 0 mm 2 mps 651 mmHg 59%
    09:00 +10°C° 0 mm 3 mps 651 mmHg 52%
    10:00 +11°C° 0 mm 3 mps 652 mmHg 45%
    11:00 +12°C° 0 mm 3 mps 652 mmHg 45%
    12:00 +12°C° 0 mm 3 mps 652 mmHg 44%
    13:00 +13°C° 0 mm 4 mps 652 mmHg 44%
    14:00 +13°C° 0 mm 4 mps 651 mmHg 48%
    15:00 +12°C° 0 mm 4 mps 651 mmHg 51%
    16:00 +12°C° 0 mm 3 mps 651 mmHg 55%
    17:00 +10°C° 0 mm 3 mps 650 mmHg 63%
    18:00 +8°C° 0 mm 3 mps 650 mmHg 70%
    19:00 +7°C° 0 mm 2 mps 649 mmHg 78%
    20:00 +6°C° 0 mm 2 mps 649 mmHg 79%
    21:00 +6°C° 0 mm 1 mps 649 mmHg 81%
    22:00 +6°C° 0 mm 1 mps 649 mmHg 82%
    23:00 +5°C° 0 mm 1 mps 649 mmHg 80%

    29 April, Monday

    Time Temperature Precipitation Wind Pressure Humidity
    00:00 +5°C° 0 mm 1 mps 649 mmHg 79%
    01:00 +4°C° 0 mm 0 mps 649 mmHg 77%
    02:00 +3°C° 0 mm 0 mps 649 mmHg 76%
    03:00 +4°C° 0 mm 1 mps 649 mmHg 75%
    04:00 +4°C° 0 mm 1 mps 648 mmHg 75%
    05:00 +5°C° 0 mm 1 mps 649 mmHg 70%
    06:00 +7°C° 0 mm 1 mps 649 mmHg 66%
    07:00 +8°C° 0 mm 1 mps 650 mmHg 61%
    08:00 +10°C° 0 mm 1 mps 650 mmHg 57%
    09:00 +10°C° 0 mm 2 mps 651 mmHg 53%
    10:00 +12°C° 0 mm 2 mps 651 mmHg 49%
    11:00 +13°C° 0 mm 2 mps 651 mmHg 50%
    12:00 +13°C° 0 mm 2 mps 651 mmHg 51%
    13:00 +12°C° 0 mm 3 mps 651 mmHg 52%
    14:00 +12°C° 0 mm 3 mps 650 mmHg 56%
    15:00 +13°C° 0 mm 2 mps 650 mmHg 59%
    16:00 +12°C° 0 mm 2 mps 650 mmHg 63%
    17:00 +10°C° 0 mm 2 mps 650 mmHg 71%
    18:00 +9°C° 0 mm 1 mps 649 mmHg 80%
    19:00 +8°C° 0 mm 1 mps 649 mmHg 88%
    20:00 +7°C° 0 mm 1 mps 649 mmHg 90%
    21:00 +6°C° 0 mm 0 mps 649 mmHg 92%
    22:00 +5°C° 0 mm 0 mps 649 mmHg 94%
    23:00 +5°C° 0 mm 0 mps 649 mmHg 94%

    30 April, Tuesday

    Time Temperature Precipitation Wind Pressure Humidity
    00:00 +5°C° 0 mm 0 mps 649 mmHg 94%
    01:00 +4°C° 0 mm 0 mps 649 mmHg 94%
    02:00 +4°C° 0 mm 0 mps 649 mmHg 94%
    03:00 +5°C° 0 mm 1 mps 649 mmHg 93%
    04:00 +5°C° 0 mm 1 mps 649 mmHg 92%
    05:00 +6°C° 0 mm 1 mps 649 mmHg 87%
    06:00 +7°C° 0 mm 1 mps 649 mmHg 81%
    07:00 +8°C° 0 mm 1 mps 650 mmHg 76%
    08:00 +9°C° 0 mm 2 mps 650 mmHg 71%
    09:00 +10°C° 0 mm 2 mps 650 mmHg 67%
    10:00 +12°C° 0 mm 2 mps 651 mmHg 62%
    11:00 +11°C° 0.3 mm 3 mps 650 mmHg 63%
    12:00 +11°C° 0.3 mm 3 mps 650 mmHg 64%
    13:00 +12°C° 0.3 mm 3 mps 650 mmHg 66%
    14:00 +11°C° 0.3 mm 3 mps 650 mmHg 66%
    15:00 +11°C° 0.3 mm 3 mps 650 mmHg 67%
    16:00 +11°C° 0.3 mm 3 mps 649 mmHg 67%
    17:00 +9°C° 0.1 mm 3 mps 649 mmHg 73%
    18:00 +8°C° 0.1 mm 2 mps 649 mmHg 80%
    19:00 +6°C° 0.1 mm 2 mps 648 mmHg 86%
    20:00 +6°C° 0 mm 2 mps 648 mmHg 87%
    21:00 +5°C° 0 mm 2 mps 648 mmHg 88%
    22:00 +5°C° 0 mm 2 mps 648 mmHg 90%
    23:00 +4°C° 0 mm 2 mps 648 mmHg 87%

    1 May, Wednesday

    Time Temperature Precipitation Wind Pressure Humidity
    00:00 +4°C° 0 mm 2 mps 648 mmHg 85%
    01:00 +4°C° 0 mm 1 mps 648 mmHg 83%
    02:00 +4°C° 0 mm 1 mps 648 mmHg 79%
    03:00 +3°C° 0 mm 2 mps 647 mmHg 75%
    04:00 +2°C° 0 mm 2 mps 647 mmHg 71%
    05:00 +3°C° 0 mm 2 mps 648 mmHg 66%
    06:00 +5°C° 0 mm 2 mps 648 mmHg 61%
    07:00 +7°C° 0 mm 1 mps 648 mmHg 56%
    08:00 +7°C° 0 mm 2 mps 649 mmHg 52%
    09:00 +9°C° 0 mm 2 mps 649 mmHg 48%
    10:00 +10°C° 0 mm 2 mps 650 mmHg 44%
    11:00 +10°C° 0 mm 2 mps 650 mmHg 47%
    12:00 +11°C° 0 mm 3 mps 650 mmHg 50%
    13:00 +11°C° 0 mm 3 mps 650 mmHg 53%
    14:00 +10°C° 0.2 mm 3 mps 649 mmHg 58%
    15:00 +10°C° 0.2 mm 3 mps 649 mmHg 63%
    16:00 +9°C° 0.2 mm 3 mps 649 mmHg 68%
    17:00 +8°C° 0.2 mm 3 mps 649 mmHg 75%
    18:00 +7°C° 0.2 mm 3 mps 649 mmHg 82%
    19:00 +5°C° 0.2 mm 3 mps 648 mmHg 89%
    20:00 +4°C° 0 mm 3 mps 649 mmHg 90%
    21:00 +4°C° 0 mm 2 mps 649 mmHg 90%
    22:00 +4°C° 0 mm 2 mps 649 mmHg 90%
    23:00 +3°C° 0 mm 2 mps 649 mmHg 88%
    Show more